This is the latest recevied weather packets stored in our database for station/object SQ9SMC-13. If no packets are shown the sender has not sent any weather packets the latest 10 day(s).
| Time | Temp. | Humidity | Pressure | Rain* | Wind** | Luminosity | Snow |
|---|---|---|---|---|---|---|---|
| 1777961703 | 20.56° C | 40% | 1012.7 hPa | 0 mm | - | 243 W/m² | - |
| 1777961402 | 20° C | 40% | 1012.7 hPa | 0 mm | - | 230 W/m² | - |
| 1777961105 | 20.56° C | 39% | 1012.7 hPa | 0 mm | - | 220 W/m² | - |
| 1777960803 | 20° C | 41% | 1012.6 hPa | 0 mm | - | 207 W/m² | - |
| 1777960503 | 19.44° C | 42% | 1012.9 hPa | 0 mm | - | 191 W/m² | - |
| 1777960204 | 19.44° C | 42% | 1012.8 hPa | 0 mm | - | 183 W/m² | - |
| 1777959904 | 18.89° C | 44% | 1012.7 hPa | 0 mm | - | 172 W/m² | - |
| 1777959604 | 18.89° C | 45% | 1012.7 hPa | 0 mm | - | 159 W/m² | - |
| 1777959304 | 17.78° C | 50% | 1012.8 hPa | 0 mm | - | 149 W/m² | - |
| 1777959002 | 17.22° C | 54% | 1012.6 hPa | 0 mm | - | 143 W/m² | - |
| 1777958704 | 16.11° C | 59% | 1012.9 hPa | 0 mm | - | 130 W/m² | - |
| 1777958403 | 15° C | 63% | 1012.8 hPa | 0 mm | - | 120 W/m² | - |
| 1777958104 | 14.44° C | 62% | 1012.7 hPa | 0 mm | - | 111 W/m² | - |
| 1777957803 | 13.89° C | 64% | 1013 hPa | 0 mm | - | 104 W/m² | - |
| 1777957504 | 13.33° C | 64% | 1013 hPa | 0 mm | - | 96 W/m² | - |
| 1777957203 | 13.33° C | 62% | 1013 hPa | 0 mm | - | 88 W/m² | - |
| 1777956903 | 13.33° C | 62% | 1013 hPa | 0 mm | - | 76 W/m² | - |
| 1777956602 | 12.78° C | 63% | 1012.9 hPa | 0 mm | - | 63 W/m² | - |
| 1777956303 | 12.78° C | 62% | 1013 hPa | 0 mm | - | 59 W/m² | - |
| 1777956004 | 12.22° C | 63% | 1012.9 hPa | 0 mm | - | 53 W/m² | - |
| 1777955702 | 11.67° C | 65% | 1013.1 hPa | 0 mm | - | 50 W/m² | - |
| 1777955402 | 11.67° C | 66% | 1013 hPa | 0 mm | - | 47 W/m² | - |
| 1777955104 | 11.11° C | 66% | 1012.9 hPa | 0 mm | - | 43 W/m² | - |
| 1777954804 | 10° C | 72% | 1013.1 hPa | 0 mm | - | 39 W/m² | - |
| 1777954503 | 8.89° C | 74% | 1013.1 hPa | 0 mm | - | 35 W/m² | - |
* Rain latest hour (hover to see other rain measurements)
** Current wind speed in m/s (hover to see current wind gust speed)